When you browse on this site, cookies collect data to enhance your experience and personalize the content and advertising you see.
Visit our Privacy Policy to learn more. By continuing to use the site, you agree to this use of cookies and data.

Hourly Weather Wiktoria

Today, 8 August, Saturday

Time Temperature Precipitation Wind Pressure Humidity
00:00 +7°C° 0.1 mm 6 mps 748 mmHg 86%
01:00 +7°C° 0.1 mm 6 mps 748 mmHg 85%
02:00 +7°C° 0.3 mm 6 mps 747 mmHg 87%
03:00 +7°C° 0.3 mm 6 mps 747 mmHg 89%
04:00 +7°C° 0 mm 6 mps 747 mmHg 89%
05:00 +7°C° 0.2 mm 6 mps 747 mmHg 90%
06:00 +7°C° 0.2 mm 6 mps 747 mmHg 91%
07:00 +7°C° 0.2 mm 6 mps 747 mmHg 92%
08:00 +8°C° 0.3 mm 5 mps 748 mmHg 91%
09:00 +8°C° 0.3 mm 5 mps 748 mmHg 91%
10:00 +10°C° 0.3 mm 4 mps 749 mmHg 91%
11:00 +10°C° 0.2 mm 4 mps 749 mmHg 91%
12:00 +10°C° 0.2 mm 4 mps 748 mmHg 92%
13:00 +10°C° 0.2 mm 4 mps 748 mmHg 92%
14:00 +10°C° 0.1 mm 3 mps 748 mmHg 92%
15:00 +10°C° 0.1 mm 2 mps 748 mmHg 92%
16:00 +11°C° 0.1 mm 1 mps 748 mmHg 92%
17:00 +11°C° 0 mm 1 mps 748 mmHg 93%
18:00 +11°C° 0 mm 1 mps 749 mmHg 94%
19:00 +10°C° 0 mm 1 mps 749 mmHg 94%
20:00 +10°C° 0 mm 1 mps 749 mmHg 94%
21:00 +10°C° 0 mm 1 mps 749 mmHg 94%
22:00 +10°C° 0 mm 1 mps 750 mmHg 94%
23:00 +9°C° 0 mm 1 mps 750 mmHg 93%

Tomorrow, 9 August, Sunday

Time Temperature Precipitation Wind Pressure Humidity
00:00 +8°C° 0 mm 2 mps 750 mmHg 92%
01:00 +8°C° 0 mm 2 mps 750 mmHg 91%
02:00 +8°C° 0 mm 2 mps 749 mmHg 91%
03:00 +8°C° 0 mm 2 mps 749 mmHg 91%
04:00 +8°C° 0 mm 2 mps 749 mmHg 91%
05:00 +7°C° 0 mm 2 mps 749 mmHg 91%
06:00 +7°C° 0 mm 2 mps 750 mmHg 90%
07:00 +7°C° 0 mm 3 mps 750 mmHg 90%
08:00 +8°C° 0 mm 3 mps 750 mmHg 86%
09:00 +10°C° 0 mm 3 mps 750 mmHg 82%
10:00 +11°C° 0 mm 4 mps 750 mmHg 78%
11:00 +12°C° 0 mm 4 mps 750 mmHg 73%
12:00 +14°C° 0 mm 4 mps 750 mmHg 68%
13:00 +15°C° 0 mm 4 mps 749 mmHg 62%
14:00 +15°C° 0 mm 4 mps 749 mmHg 65%
15:00 +15°C° 0 mm 4 mps 749 mmHg 67%
16:00 +15°C° 0 mm 4 mps 749 mmHg 69%
17:00 +13°C° 0 mm 4 mps 750 mmHg 71%
18:00 +11°C° 0 mm 4 mps 750 mmHg 72%
19:00 +8°C° 0 mm 4 mps 751 mmHg 74%
20:00 +7°C° 0 mm 4 mps 751 mmHg 78%
21:00 +6°C° 0 mm 4 mps 752 mmHg 81%
22:00 +7°C° 0 mm 3 mps 752 mmHg 85%
23:00 +5°C° 0 mm 3 mps 752 mmHg 85%

Day after tomorrow, 10 August, Monday

Time Temperature Precipitation Wind Pressure Humidity
00:00 +5°C° 0 mm 3 mps 752 mmHg 85%
01:00 +5°C° 0 mm 3 mps 752 mmHg 84%
02:00 +5°C° 0 mm 3 mps 752 mmHg 85%
03:00 +5°C° 0 mm 2 mps 753 mmHg 86%
04:00 +5°C° 0 mm 2 mps 753 mmHg 86%
05:00 +5°C° 0 mm 2 mps 753 mmHg 87%
06:00 +4°C° 0 mm 2 mps 753 mmHg 88%
07:00 +4°C° 0 mm 2 mps 754 mmHg 89%
08:00 +6°C° 0 mm 2 mps 754 mmHg 82%
09:00 +9°C° 0 mm 2 mps 754 mmHg 76%
10:00 +12°C° 0 mm 1 mps 754 mmHg 69%
11:00 +13°C° 0 mm 1 mps 754 mmHg 65%
12:00 +15°C° 0 mm 1 mps 753 mmHg 60%
13:00 +15°C° 0 mm 0 mps 753 mmHg 56%
14:00 +16°C° 0 mm 1 mps 753 mmHg 58%
15:00 +16°C° 0 mm 1 mps 752 mmHg 60%
16:00 +16°C° 0 mm 1 mps 752 mmHg 63%
17:00 +13°C° 0 mm 1 mps 753 mmHg 68%
18:00 +11°C° 0 mm 1 mps 753 mmHg 74%
19:00 +9°C° 0 mm 1 mps 753 mmHg 80%
20:00 +8°C° 0 mm 1 mps 754 mmHg 82%
21:00 +8°C° 0 mm 1 mps 754 mmHg 83%
22:00 +8°C° 0 mm 1 mps 754 mmHg 85%
23:00 +7°C° 0 mm 1 mps 754 mmHg 86%

11 August, Tuesday

Time Temperature Precipitation Wind Pressure Humidity
00:00 +6°C° 0 mm 2 mps 754 mmHg 88%
01:00 +5°C° 0 mm 2 mps 754 mmHg 90%
02:00 +5°C° 0 mm 2 mps 753 mmHg 91%
03:00 +4°C° 0 mm 3 mps 753 mmHg 92%
04:00 +4°C° 0 mm 3 mps 753 mmHg 93%
05:00 +4°C° 0 mm 3 mps 753 mmHg 93%
06:00 +4°C° 0 mm 3 mps 753 mmHg 93%
07:00 +4°C° 0 mm 3 mps 753 mmHg 93%
08:00 +5°C° 0 mm 4 mps 753 mmHg 87%
09:00 +6°C° 0 mm 5 mps 753 mmHg 82%
10:00 +8°C° 0 mm 5 mps 752 mmHg 76%
11:00 +9°C° 0 mm 6 mps 752 mmHg 74%
12:00 +10°C° 0 mm 6 mps 751 mmHg 71%
13:00 +11°C° 0 mm 6 mps 751 mmHg 69%
14:00 +11°C° 0 mm 6 mps 750 mmHg 71%
15:00 +12°C° 0 mm 5 mps 749 mmHg 73%
16:00 +12°C° 0 mm 5 mps 749 mmHg 74%
17:00 +12°C° 0 mm 5 mps 749 mmHg 76%
18:00 +10°C° 0 mm 5 mps 749 mmHg 78%
19:00 +9°C° 0 mm 5 mps 749 mmHg 80%
20:00 +9°C° 0 mm 5 mps 749 mmHg 80%
21:00 +9°C° 0 mm 5 mps 749 mmHg 80%
22:00 +9°C° 0 mm 6 mps 749 mmHg 81%
23:00 +8°C° 0.3 mm 5 mps 748 mmHg 84%

12 August, Wednesday

Time Temperature Precipitation Wind Pressure Humidity
00:00 +8°C° 0.3 mm 5 mps 748 mmHg 87%
01:00 +8°C° 0.3 mm 5 mps 747 mmHg 90%
02:00 +8°C° 0.4 mm 5 mps 747 mmHg 92%
03:00 +8°C° 0.4 mm 5 mps 746 mmHg 94%
04:00 +7°C° 0.4 mm 5 mps 746 mmHg 95%
05:00 +8°C° 0.5 mm 4 mps 746 mmHg 96%
06:00 +8°C° 0.5 mm 4 mps 746 mmHg 97%
07:00 +8°C° 0.5 mm 4 mps 747 mmHg 98%
08:00 +8°C° 0.2 mm 4 mps 747 mmHg 97%
09:00 +10°C° 0.2 mm 4 mps 747 mmHg 96%
10:00 +11°C° 0.2 mm 4 mps 747 mmHg 96%
11:00 +12°C° 0.1 mm 4 mps 747 mmHg 93%
12:00 +12°C° 0.1 mm 4 mps 746 mmHg 90%
13:00 +13°C° 0.1 mm 4 mps 746 mmHg 87%
14:00 +14°C° 0.4 mm 4 mps 746 mmHg 87%
15:00 +14°C° 0.4 mm 4 mps 745 mmHg 88%
16:00 +14°C° 0.4 mm 3 mps 745 mmHg 88%
17:00 +13°C° 0.7 mm 4 mps 746 mmHg 90%
18:00 +13°C° 0.7 mm 4 mps 746 mmHg 93%
19:00 +12°C° 0.7 mm 4 mps 746 mmHg 95%
20:00 +12°C° 0.6 mm 4 mps 746 mmHg 95%
21:00 +11°C° 0.6 mm 4 mps 747 mmHg 96%
22:00 +11°C° 0.6 mm 4 mps 747 mmHg 97%
23:00 +11°C° 0.4 mm 4 mps 747 mmHg 97%

13 August, Thursday

Time Temperature Precipitation Wind Pressure Humidity
00:00 +11°C° 0.4 mm 4 mps 747 mmHg 97%
01:00 +11°C° 0.4 mm 4 mps 747 mmHg 97%
02:00 +10°C° 0.1 mm 4 mps 747 mmHg 97%
03:00 +10°C° 0.1 mm 4 mps 747 mmHg 97%
04:00 +10°C° 0.1 mm 3 mps 747 mmHg 97%
05:00 +10°C° 0 mm 3 mps 747 mmHg 96%
06:00 +10°C° 0 mm 4 mps 747 mmHg 96%
07:00 +10°C° 0 mm 4 mps 748 mmHg 96%
08:00 +11°C° 0.1 mm 4 mps 748 mmHg 95%
09:00 +12°C° 0.1 mm 5 mps 748 mmHg 93%
10:00 +12°C° 0.1 mm 5 mps 748 mmHg 92%
11:00 +14°C° 0.5 mm 5 mps 748 mmHg 87%
12:00 +15°C° 0.5 mm 5 mps 747 mmHg 81%
13:00 +16°C° 0.5 mm 5 mps 747 mmHg 76%
14:00 +16°C° 0.3 mm 5 mps 747 mmHg 77%
15:00 +17°C° 0.3 mm 4 mps 747 mmHg 78%
16:00 +17°C° 0.3 mm 3 mps 747 mmHg 79%
17:00 +14°C° 0.1 mm 3 mps 747 mmHg 82%
18:00 +13°C° 0.1 mm 3 mps 747 mmHg 84%
19:00 +12°C° 0.1 mm 2 mps 748 mmHg 86%
20:00 +12°C° 0 mm 2 mps 748 mmHg 86%
21:00 +12°C° 0 mm 2 mps 748 mmHg 87%
22:00 +10°C° 0 mm 2 mps 749 mmHg 87%
23:00 +10°C° 0 mm 2 mps 748 mmHg 89%
Show more